User: anonymous   Login
Location: Norwich
(42.5310°N, 75.5240°W)
Time: 09:27:02
(UTC-04:00)
Language:

Envisat - Orbit

View from above orbital plane
View from above orbital plane
View from above satellite
View from above satellite

Ground track
Ground track

The orbit data is extracted from the following two-line orbital elements,

1 27386U 02009A   20295.99193427  .00000011  00000-0  17099-4 0  9991
2 27386  98.1399 296.4037 0001212  91.7094 321.2268 14.37995944976803
Epoch (UTC): 21 October 2020 23:48:23
Eccentricity: 0.0001212
inclination: 98.1399°
perigee height: 764 km
apogee height: 766 km
right ascension of ascending node: 296.4037°
argument of perigee: 91.7094°
revolutions per day: 14.37995944
mean anomaly at epoch: 321.2268°
orbit number at epoch: 97680

The dashed part of the orbit path shows where the satellite is in the earth's shadow,  

DLR